SL-14 R/B (11672 NORAD) Tracking and Keplerian Element Data

This shows tracking and keplerian element data for the satellite.

Feedback or suggestion? Click here.




ElementValue
Catalog11672
NameSL-14 R/B
Epoch Orbit35932
Epoch Day12.91627079
Epoch Year2024
RAAN332.4947
Inclination82.5163
Eccentricity0.00146
Argument of Perigee264.2324
Mean Anonmoly95.7229
Mean Motion14.89091714
Decay Rate1.139E-05
L11 11672U 80005B 24012.91627079 .00001139 00000+0 11809-3 0 9995
L22 11672 82.5163 332.4947 0014600 264.2324 95.7229 14.89091714359320



Live tracking and technical data element details for SL-14 R/B (NORAD 11672). SL-14 R/B can be tracked NOW for your location showing map with azimuth and elevation plus other details from your city location.







IsCatalogInMostPopularTable: catalog: 11672, numindb: 426
Update: records affected: 1



GetName: 11672 SL-14 R/B

Hit Count: updated at: Fri, 19 Apr 2024 13:20:09 GMT